Weather History for New Bedford, MA

Change the Weather History Date:

Tuesday, September 20, 2011

  Actual Average Record
Temperature  
Mean Temperature 58 °F -  
Max Temperature 66 °F 71 °F 88 °F (1983)
Min Temperature 50 °F 56 °F 32 °F (2003)
Degree Days  
Heating Degree Days 7    
Growing Degree Days 8 (Base 50)    
Moisture  
Dew Point 57 °F    
Average Humidity 83    
Maximum Humidity 96    
Minimum Humidity 68    
Precipitation  
Precipitation 0.00 in - - ()
Sea Level Pressure  
Sea Level Pressure 30.12 in    
Wind  
Wind Speed 5 mph (SW)    
Max Wind Speed 15 mph    
Max Gust Speed 24 mph    
Visibility 10 miles    
Events Rain    
Averages and records for this station are not official NWS values.
T = Trace of Precipitation, MM = Missing Value Source: NWS Daily Summary

Daily Weather History Graph

Daily Weather History Graph

Search for Another Location

Airport:

Trip Planner

Search our weather history database for the weather conditions in past years. The results will help you decide how hot, cold, wet, or windy it might be!

Date:

Astronomy

Sep. 20, 2011 Rise Set
Actual Time 6:28 AM EDT 6:45 PM EDT
Civil Twilight 6:01 AM EDT 7:12 PM EDT
Nautical Twilight 5:28 AM EDT 7:45 PM EDT
Astronomical Twilight 4:55 AM EDT 8:18 PM EDT
Moon 11:41 PM EDT (9/20) 2:10 PM EDT (9/20)
Length of Visible Light 13h 11m
Length of Day
12h 16m
Waning Gibbous, 49% of the Moon is Illuminated
Sep 20
Waning Gibbous
Sep 27
New
Oct 3
First Quarter
Oct 11
Full
Oct 19
Last Quarter

Hourly Weather History & Observations

Time (EDT) Temp. Dew Point Humidity Pressure Visibility Wind Dir Wind Speed Gust Speed Precip Events Conditions
12:53 AM 50.0 °F 48.0 °F 93% 30.15 in 10.0 mi Calm Calm - N/A   Mostly Cloudy
1:53 AM 55.0 °F 51.1 °F 86% 30.14 in 10.0 mi South 4.6 mph - N/A   Scattered Clouds
2:53 AM 50.0 °F 48.9 °F 96% 30.13 in 10.0 mi Calm Calm - N/A   Mostly Cloudy
3:53 AM 51.1 °F 48.9 °F 92% 30.12 in 10.0 mi Calm Calm - N/A   Mostly Cloudy
4:53 AM 51.1 °F 50.0 °F 96% 30.12 in 10.0 mi Calm Calm - N/A   Clear
5:53 AM 51.1 °F 48.9 °F 92% 30.12 in 10.0 mi Calm Calm - N/A   Clear
6:53 AM 54.0 °F 51.1 °F 90% 30.13 in 10.0 mi Calm Calm - N/A   Partly Cloudy
7:53 AM 57.9 °F 55.0 °F 90% 30.13 in 10.0 mi SSW 3.5 mph - N/A   Scattered Clouds
8:53 AM 62.1 °F 57.0 °F 84% 30.13 in 10.0 mi SSW 6.9 mph - N/A   Overcast
9:40 AM 64.4 °F 57.2 °F 77% 30.13 in 10.0 mi SSW 12.7 mph - N/A   Overcast
10:01 AM 64.4 °F 57.2 °F 77% 30.13 in 10.0 mi South 11.5 mph - N/A   Overcast
10:32 AM 66.2 °F 57.2 °F 73% 30.13 in 10.0 mi SSW 11.5 mph - N/A   Overcast
10:53 AM 66.0 °F 55.9 °F 70% 30.13 in 10.0 mi SW 10.4 mph - N/A   Overcast
11:03 AM 66.2 °F 55.4 °F 68% 30.13 in 10.0 mi SW 10.4 mph 17.3 mph N/A   Overcast
11:53 AM 66.0 °F 57.0 °F 73% 30.13 in 10.0 mi SW 11.5 mph - 0.00 in   Overcast
12:53 PM 66.9 °F 57.9 °F 73% 30.11 in 10.0 mi SW 12.7 mph 18.4 mph 0.00 in   Overcast
1:53 PM 66.9 °F 59.0 °F 76% 30.10 in 10.0 mi SW 10.4 mph - 0.00 in   Overcast
2:15 PM 66.2 °F 57.2 °F 73% 30.10 in 10.0 mi SW 11.5 mph 24.2 mph 0.00 in Rain Light Rain
2:53 PM 66.9 °F 59.0 °F 76% 30.09 in 10.0 mi SW 15.0 mph 20.7 mph 0.00 in   Overcast
3:53 PM 64.9 °F 60.1 °F 84% 30.09 in 10.0 mi SW 9.2 mph - 0.00 in   Overcast
4:53 PM 66.0 °F 61.0 °F 84% 30.09 in 10.0 mi SW 10.4 mph - 0.00 in   Overcast
5:06 PM 66.2 °F 60.8 °F 83% 30.08 in 10.0 mi WSW 9.2 mph - N/A   Overcast
5:29 PM 66.2 °F 60.8 °F 83% 30.09 in 10.0 mi SW 8.1 mph - N/A   Overcast
5:53 PM 66.0 °F 61.0 °F 84% 30.09 in 10.0 mi SW 8.1 mph - N/A   Overcast
6:00 PM 66.2 °F 60.8 °F 83% 30.09 in 10.0 mi SW 6.9 mph - N/A   Overcast
6:53 PM 64.9 °F 61.0 °F 87% 30.10 in 10.0 mi SW 5.8 mph - N/A   Overcast
7:53 PM 64.9 °F 62.1 °F 90% 30.12 in 10.0 mi WSW 4.6 mph - N/A   Overcast
8:53 PM 66.2 °F 62.6 °F 88% 30.14 in 10.0 mi WSW 3.5 mph - N/A   Overcast
9:53 PM 64.9 °F 59.0 °F 81% 30.16 in 10.0 mi West 5.8 mph - N/A   Overcast
10:02 PM 64.4 °F 59.0 °F 83% 30.16 in 10.0 mi WSW 4.6 mph - N/A   Overcast
10:53 PM 62.1 °F 59.0 °F 90% 30.16 in 10.0 mi Calm Calm - N/A   Scattered Clouds
11:53 PM 60.1 °F 57.9 °F 93% 30.17 in 8.0 mi Calm Calm - N/A   Scattered Clouds